Location: Boston
(42.3580°N, 71.0600°W)
Time: 09:25:08
(UTC-04:00)

Vanguard 2 Rocket - Visible Passes

Search period start: 17 July 2018 00:00
Search period end: 27 July 2018 00:00
Orbit: 553 x 3327 km, 32.9° (Epoch: 16 July)

Date Brightness Start Highest point End Pass type
(mag) Time Alt. Az. Time Alt. Az. Time Alt. Az.
17 Jul 8.7 02:44:48 19° SSE 02:46:27 21° SE 02:53:11 10° E visible
18 Jul 9.3 01:48:38 11° SE 01:48:38 11° SE 01:49:35 10° ESE visible
18 Jul 8.4 03:54:26 18° SW 03:59:17 39° SSE 04:09:53 10° E visible
19 Jul 8.2 02:58:17 25° S 03:00:02 28° SSE 03:07:51 10° E visible
20 Jul 8.8 02:02:08 17° SE 02:02:08 17° SE 02:05:46 10° ESE visible
20 Jul 8.2 04:07:57 16° SW 04:13:11 43° SSE 04:23:59 10° E visible
21 Jul 7.9 03:11:48 28° S 03:13:49 34° SSE 03:22:10 10° E visible
22 Jul 8.4 02:15:42 23° SE 02:15:42 23° SE 02:20:35 10° ESE visible
22 Jul 8.1 04:21:31 13° WSW 04:27:14 45° S 04:37:57 10° ESE visible
23 Jul 7.7 03:25:25 29° SSW 03:27:46 38° SSE 03:36:19 10° ESE visible
24 Jul 8.0 02:29:22 28° SSE 02:29:22 28° SSE 02:35:00 10° ESE visible
24 Jul 8.1 04:35:15 10° WSW 04:41:21 43° S 04:51:45 10° ESE visible
25 Jul 9.0 01:33:20 12° ESE 01:33:20 12° ESE 01:33:53 10° ESE visible
25 Jul 7.7 03:39:10 26° SW 03:41:51 39° S 03:50:18 10° ESE visible
26 Jul 7.7 02:43:11 32° SSE 02:43:11 32° SSE 02:49:11 10° ESE visible
26 Jul 8.3 04:49:38 10° WSW 04:55:33 37° S 05:05:18 10° SE visible
